[[{"header":{"parameterUnit":"m.s-1","parameterCategory":1,"la1":30.2991,"la2":30.254,"lo1":-89.0895,"lo2":-89.0444,"dy":0.0017,"dx":0.0017,"nx":28,"ny":28,"refTime":"2024-02-01T03:00:00:Z","depth":0,"parameterNumber":2,"parameterNumberName":"U-component_of_WINDS"},"data":[0,0,0,0,0,0,0,0,0,0,0,0,0,0,0,0,0,0,0,0,0,0,0,0,0,0,0,0,0,0,0,0,0,0,0,0,0,0,0,0,0,0,0,0,0,0,0,0,0,0,0,0,0,0,0,0,0,0,-0.2415,-0.2415,0,-0.2396,-0.2396,-0.2396,-0.2385,-0.2385,-0.2385,-0.2385,-0.2366,-0.2365,-0.2365,0,0,0,0,0,0,0,0,0,0,0,0,0,-0.2445,-0.2445,-0.2415,-0.2415,-0.2415,-0.2396,-0.2396,-0.2396,-0.2385,-0.2385,-0.2385,-0.2385,-0.2366,-0.2365,-0.2365,0,0,0,0,0,0,0,0,0,0,0,0,0,-0.243,-0.2445,-0.2415,-0.2407,-0.2406,-0.2396,-0.2396,-0.2395,-0.2385,-0.2385,-0.2385,-0.2385,-0.2366,-0.2365,-0.2365,-0.2361,0,0,-0.2362,-0.2362,0,0,0,0,0,0,0,0,-0.2431,-0.2429,-0.2409,-0.2408,-0.2407,-0.2393,-0.2399,-0.2384,-0.2385,-0.2393,-0.2385,-0.2385,-0.2375,-0.2373,-0.237,-0.236,-0.2359,-0.2362,-0.2362,-0.2361,-0.2361,0,0,0,0,0,0,0,-0.2432,-0.2429,-0.2408,-0.2408,-0.2407,-0.2405,-0.2403,-0.2396,-0.2384,-0.2392,-0.2392,-0.239,-0.2374,-0.2371,-0.2369,-0.2359,-0.2362,-0.2362,-0.2361,-0.2361,-0.2348,-0.2348,0,0,0,0,0,0,-0.2434,-0.243,-0.2408,-0.2407,-0.2419,-0.2405,-0.2402,-0.2397,-0.2384,-0.2382,-0.239,-0.2389,-0.2372,-0.237,-0.2369,-0.2365,-0.2361,-0.2361,-0.236,-0.2348,-0.2348,-0.2348,0,0,0,0,0,0,-0.2435,-0.2432,-0.2409,-0.2419,-0.2415,-0.2404,-0.2399,-0.2397,-0.2393,-0.2382,-0.238,-0.2388,-0.2372,-0.237,-0.2363,-0.2364,-0.236,-0.236,-0.2348,-0.2348,-0.2348,-0.2356,0,0,0,0,0,0,-0.2436,-0.2432,-0.243,-0.2419,-0.2415,-0.2403,-0.2399,-0.2397,-0.2392,-0.2391,-0.238,-0.2378,-0.2372,-0.2365,-0.2363,-0.2363,-0.2359,-0.2347,-0.2348,-0.2348,-0.2355,-0.2356,-0.2357,0,0,0,0,0,-0.2437,-0.2432,-0.243,-0.2427,-0.2412,-0.2403,-0.2401,-0.2393,-0.2392,-0.239,-0.2384,-0.2379,-0.2364,-0.2364,-0.2362,-0.2361,-0.2347,-0.2348,-0.2348,-0.2355,-0.2356,-0.2357,0,0,0,0,0,0,-0.2443,-0.2431,-0.2428,-0.2419,-0.2413,-0.2401,-0.2398,-0.2394,-0.2388,-0.2387,-0.2378,-0.2376,-0.2371,-0.2366,-0.2366,-0.2359,-0.2355,-0.2355,-0.2362,-0.2363,-0.2363,-0.2364,-0.2359,0,0,0,0,0,-0.2444,-0.2438,-0.2427,-0.2421,-0.2418,-0.2409,-0.2405,-0.24,-0.2393,-0.239,-0.2382,-0.2376,-0.237,-0.2366,-0.236,-0.2355,-0.2354,-0.2354,-0.2355,-0.2356,-0.2355,-0.2354,-0.2355,-0.2349,-0.2349,-0.2349,0,0,-0.2445,-0.2437,-0.2434,-0.2422,-0.2416,-0.2411,-0.2406,-0.24,-0.2397,-0.2389,-0.2382,-0.2378,-0.237,-0.2365,-0.2362,-0.236,-0.2357,-0.2356,-0.2357,-0.2356,-0.2355,-0.2355,-0.2356,-0.2349,-0.2349,-0.2349,0,0,-0.2444,-0.2437,-0.2432,-0.2427,-0.2418,-0.2413,-0.2412,-0.2402,-0.2399,-0.2393,-0.2387,-0.2384,-0.2373,-0.2368,-0.2365,-0.2366,-0.2361,-0.2364,-0.2367,-0.2367,-0.2367,-0.2368,-0.2369,-0.2369,-0.2364,-0.2364,-0.2364,0,-0.2445,-0.2437,-0.243,-0.2425,-0.2421,-0.2415,-0.241,-0.2406,-0.2396,-0.2394,-0.2392,-0.2381,-0.2375,-0.237,-0.237,-0.2367,-0.2367,-0.2365,-0.2368,-0.2368,-0.2368,-0.2369,-0.237,-0.2365,-0.2365,-0.2365,-0.2365,0,-0.244,-0.2435,-0.2432,-0.2423,-0.2419,-0.2414,-0.2408,-0.2405,-0.2401,-0.2397,-0.2392,-0.2386,-0.2379,-0.2378,-0.2374,-0.2373,-0.2372,-0.2369,-0.2366,-0.2369,-0.237,-0.2371,-0.2365,-0.2365,-0.2365,-0.2365,0,0,-0.244,-0.243,-0.2429,-0.2426,-0.2418,-0.2414,-0.241,-0.2404,-0.2402,-0.2397,-0.2394,-0.2387,-0.2386,-0.2381,-0.2377,-0.2377,-0.238,-0.2374,-0.2374,-0.2376,-0.238,-0.2382,-0.2382,-0.2378,-0.2378,-0.2378,-0.2381,0,-0.2437,-0.243,-0.2425,-0.242,-0.2415,-0.2411,-0.2408,-0.2404,-0.24,-0.2397,-0.2393,-0.2389,-0.2386,-0.2384,-0.2384,-0.2379,-0.238,-0.2379,-0.2376,-0.2376,-0.2377,-0.2382,-0.2384,-0.2387,-0.2381,-0.2381,-0.2381,0,-0.2433,-0.2428,-0.2422,-0.2417,-0.2415,-0.2413,-0.2408,-0.2405,-0.2401,-0.2398,-0.2396,-0.2392,-0.239,-0.2388,-0.2385,-0.2385,-0.2383,-0.2382,-0.2382,-0.238,-0.2378,-0.2381,-0.2387,-0.2388,-0.2381,-0.2381,-0.2381,0,-0.2434,-0.2426,-0.2422,-0.242,-0.2414,-0.2412,-0.241,-0.2405,-0.2403,-0.24,-0.2399,-0.2395,-0.2393,-0.2391,-0.2388,-0.2387,-0.2386,-0.2383,-0.2385,-0.2385,-0.2383,-0.2383,-0.2389,-0.2384,-0.2384,-0.2384,-0.2384,0,-0.2431,-0.2428,-0.2423,-0.242,-0.2418,-0.2414,-0.2411,-0.2408,-0.2405,-0.2403,-0.24,-0.2398,-0.2394,-0.2392,-0.239,-0.2389,-0.2388,-0.2387,-0.2386,-0.2387,-0.2387,-0.2385,-0.2384,-0.2384,-0.2384,-0.2384,-0.2384,0,-0.243,-0.2427,-0.2423,-0.2418,-0.2417,-0.2415,-0.2412,-0.241,-0.2408,-0.2405,-0.2405,-0.2401,-0.2399,-0.2396,-0.2393,-0.2392,-0.2391,-0.239,-0.2392,-0.2392,-0.2393,-0.2393,-0.2397,-0.2398,-0.2393,-0.2393,-0.2393,0,-0.2428,-0.2426,-0.2422,-0.2421,-0.2418,-0.2416,-0.2414,-0.2411,-0.241,-0.2407,-0.2406,-0.2404,-0.2402,-0.24,-0.2397,-0.2396,-0.2394,-0.2396,-0.2394,-0.2395,-0.2395,-0.2395,-0.2395,-0.2396,-0.2396,-0.2396,-0.2396,0,-0.2426,-0.2425,-0.2422,-0.242,-0.2418,-0.2416,-0.2414,-0.2413,-0.241,-0.2409,-0.2407,-0.2406,-0.2404,-0.2403,-0.2401,-0.24,-0.2398,-0.2397,-0.2398,-0.2398,-0.2399,-0.2399,-0.2393,-0.2397,-0.2397,-0.2397,-0.2397,-0.2397,-0.2425,-0.2423,-0.2421,-0.2419,-0.2417,-0.2416,-0.2415,-0.2413,-0.2411,-0.241,-0.2409,-0.2407,-0.2406,-0.2404,-0.2404,-0.2404,-0.2402,-0.2403,-0.2403,-0.2402,-0.2403,-0.24,-0.2403,-0.2403,-0.2403,-0.2403,-0.2403,0,-0.2422,-0.2421,-0.2419,-0.2417,-0.2416,-0.2415,-0.2414,-0.2413,-0.2412,-0.2411,-0.241,-0.2409,-0.2409,-0.2408,-0.2407,-0.2408,-0.2407,-0.2408,-0.2407,-0.2407,-0.2404,-0.2404,-0.2409,-0.2409,-0.2409,-0.2409,-0.2409,-0.2409,-0.242,-0.2418,-0.2418,-0.2416,-0.2415,-0.2414,-0.2413,-0.2413,-0.2412,-0.2412,-0.2412,-0.2411,-0.2411,-0.2411,-0.2411,-0.2411,-0.2411,-0.2412,-0.2412,-0.2408,-0.2407,-0.2407,-0.2407,-0.2412,-0.2412,-0.2415,-0.2415,-0.2415]},{"header":{"parameterUnit":"m.s-1","parameterCategory":1,"la1":30.2991,"la2":30.254,"lo1":-89.0895,"lo2":-89.0444,"dy":0.0017,"dx":0.0017,"nx":28,"ny":28,"refTime":"2024-02-01T03:00:00:Z","depth":0,"parameterNumber":3,"parameterNumberName":"V-component_of_WINDS"},"data":[0,0,0,0,0,0,0,0,0,0,0,0,0,0,0,0,0,0,0,0,0,0,0,0,0,0,0,0,0,0,0,0,0,0,0,0,0,0,0,0,0,0,0,0,0,0,0,0,0,0,0,0,0,0,0,0,0,0,0.6246,0.6246,0,0.6233,0.6232,0.6232,0.627,0.6271,0.6272,0.6273,0.6259,0.6257,0.6256,0,0,0,0,0,0,0,0,0,0,0,0,0,0.6305,0.6304,0.6246,0.6246,0.6246,0.6233,0.6232,0.6232,0.627,0.6271,0.6272,0.6274,0.6259,0.6257,0.6256,0,0,0,0,0,0,0,0,0,0,0,0,0,0.6284,0.6304,0.6246,0.6263,0.6264,0.6233,0.6232,0.6232,0.6269,0.6271,0.6273,0.6274,0.626,0.6258,0.6255,0.6207,0,0,0.6249,0.6248,0,0,0,0,0,0,0,0,0.6285,0.6282,0.6261,0.6262,0.6263,0.6255,0.6248,0.6224,0.6269,0.6267,0.6273,0.6275,0.6256,0.6254,0.6248,0.6206,0.6205,0.6248,0.6247,0.6246,0.6246,0,0,0,0,0,0,0,0.6287,0.6283,0.6241,0.626,0.6262,0.6271,0.627,0.6243,0.6252,0.6268,0.627,0.6268,0.6257,0.625,0.6248,0.6205,0.6249,0.6247,0.6245,0.6244,0.6123,0.6121,0,0,0,0,0,0,0.6286,0.6284,0.6241,0.624,0.6279,0.6269,0.6268,0.6256,0.6252,0.6254,0.6267,0.627,0.6253,0.625,0.6247,0.619,0.6246,0.6244,0.6243,0.6125,0.6122,0.612,0,0,0,0,0,0,0.6287,0.6282,0.6242,0.6263,0.6259,0.6266,0.6252,0.6254,0.6247,0.6252,0.6253,0.6258,0.6254,0.625,0.6217,0.619,0.6243,0.6241,0.6127,0.6124,0.6121,0.6074,0,0,0,0,0,0,0.6289,0.6282,0.6264,0.6262,0.6257,0.6211,0.6251,0.6253,0.6243,0.6248,0.6244,0.6245,0.6255,0.622,0.6214,0.6188,0.6239,0.6129,0.6126,0.6122,0.6078,0.607,0.6063,0,0,0,0,0,0.6291,0.6251,0.6262,0.6257,0.6234,0.6209,0.6207,0.6219,0.6241,0.6222,0.6225,0.6245,0.6194,0.6216,0.621,0.6182,0.6131,0.6127,0.6123,0.6082,0.6072,0.6063,0,0,0,0,0,0,0.6248,0.6251,0.6264,0.6222,0.6215,0.6216,0.6193,0.6209,0.6195,0.62,0.6216,0.6215,0.6178,0.6177,0.6202,0.6135,0.6166,0.6161,0.6137,0.6128,0.612,0.6121,0.6237,0,0,0,0,0,0.6234,0.6214,0.6217,0.618,0.6176,0.6185,0.6175,0.6185,0.6179,0.6176,0.6177,0.6169,0.6152,0.614,0.6124,0.6079,0.6078,0.6057,0.6049,0.6043,0.6038,0.6014,0.6004,0.6106,0.6106,0.6107,0,0,0.6205,0.6204,0.619,0.6172,0.6168,0.6146,0.6182,0.6158,0.6142,0.6172,0.614,0.6141,0.6134,0.6094,0.6076,0.6092,0.601,0.6038,0.6033,0.6031,0.6008,0.5999,0.599,0.6103,0.6104,0.6104,0,0,0.614,0.6137,0.6106,0.6101,0.6095,0.6101,0.6094,0.6092,0.6093,0.6061,0.6083,0.6065,0.6035,0.6029,0.6022,0.5956,0.5973,0.595,0.5911,0.5887,0.5879,0.5872,0.5848,0.5839,0.5945,0.5945,0.5945,0,0.6104,0.6073,0.6088,0.6062,0.6054,0.608,0.6049,0.6044,0.6032,0.6025,0.6043,0.6006,0.6003,0.5962,0.5946,0.594,0.5931,0.595,0.5879,0.5872,0.5865,0.5843,0.5834,0.5942,0.5942,0.5943,0.5943,0,0.6029,0.6007,0.5982,0.5971,0.596,0.5931,0.5942,0.5929,0.5941,0.5945,0.5912,0.591,0.5894,0.5886,0.5897,0.5846,0.5856,0.5876,0.5907,0.5853,0.5831,0.5823,0.5938,0.5939,0.594,0.5941,0,0,0.5936,0.5934,0.5924,0.5919,0.5915,0.5898,0.5871,0.5855,0.5844,0.5835,0.5813,0.5787,0.5805,0.5797,0.5808,0.5787,0.5735,0.581,0.581,0.5795,0.5678,0.5663,0.5652,0.5747,0.5745,0.5744,0.5679,0,0.5872,0.5825,0.5838,0.5791,0.5771,0.5797,0.5773,0.5767,0.5771,0.5754,0.5759,0.5739,0.5766,0.5761,0.5742,0.5745,0.5711,0.575,0.5725,0.5724,0.5725,0.5641,0.5625,0.5564,0.5671,0.5669,0.5668,0,0.579,0.5779,0.573,0.5728,0.5721,0.5699,0.5686,0.567,0.5664,0.5668,0.566,0.5675,0.5649,0.5681,0.5644,0.567,0.5661,0.5661,0.5659,0.5657,0.5692,0.5636,0.5544,0.5535,0.5656,0.5657,0.5657,0,0.5727,0.5699,0.5666,0.5661,0.5659,0.5643,0.5642,0.5638,0.5628,0.5617,0.561,0.5596,0.5588,0.5577,0.5588,0.5611,0.555,0.5583,0.5552,0.5551,0.5537,0.5538,0.5442,0.5532,0.5533,0.5533,0.5533,0,0.5653,0.5622,0.5638,0.5617,0.5584,0.5599,0.5565,0.5567,0.5563,0.5543,0.5565,0.5546,0.5562,0.5545,0.5553,0.5522,0.5518,0.552,0.5523,0.5518,0.5517,0.5511,0.5516,0.553,0.5531,0.5531,0.5532,0,0.5576,0.5586,0.5551,0.5552,0.5552,0.5526,0.5527,0.5508,0.5514,0.5489,0.5484,0.5492,0.5473,0.5483,0.5463,0.5469,0.5428,0.5436,0.5429,0.5431,0.54,0.5402,0.5296,0.5283,0.5382,0.5381,0.5381,0,0.5528,0.5505,0.5503,0.5492,0.5489,0.547,0.546,0.5474,0.5463,0.5455,0.5437,0.542,0.5407,0.5375,0.5379,0.5364,0.5372,0.5336,0.537,0.5365,0.537,0.5371,0.5369,0.5329,0.5327,0.5326,0.5326,0,0.5442,0.5448,0.5432,0.5418,0.5406,0.5396,0.5387,0.5377,0.5391,0.5377,0.5358,0.5348,0.5328,0.531,0.5297,0.5295,0.5312,0.5315,0.5307,0.5301,0.5298,0.5299,0.541,0.5317,0.5318,0.5319,0.5319,0.532,0.5378,0.5358,0.5354,0.5336,0.5331,0.5323,0.5305,0.5309,0.5293,0.5277,0.5287,0.5264,0.526,0.5244,0.524,0.5222,0.5237,0.5225,0.5222,0.5219,0.5214,0.5301,0.522,0.5221,0.5221,0.5221,0.5221,0,0.5292,0.5291,0.5274,0.5262,0.5248,0.5266,0.5257,0.5244,0.5224,0.5218,0.5205,0.5182,0.5165,0.5168,0.5153,0.5138,0.5146,0.5134,0.5134,0.5134,0.5203,0.5211,0.5128,0.5128,0.5128,0.5128,0.5128,0.5128,0.5246,0.5214,0.5219,0.5184,0.5183,0.5161,0.5155,0.5147,0.5142,0.5116,0.5102,0.5105,0.5102,0.5087,0.5072,0.5074,0.5067,0.5052,0.5056,0.512,0.5129,0.5138,0.5145,0.505,0.505,0.4988,0.4988,0.4987]}]]